Theta_e
314 315 316 318 318 317 317 317 317 317 316 317 317 317 316 316 315 315 315 315 316 315 314 311 310 310 310 310 310 310 310 311 310 311 312 313 315 316 317 317 316 316 315 314
314 315 316 316 316 314 315 316 316 316 317 317 316 316 315 315 315 315 315 315 315 313 311 309 308 308 307 308 308 308 308 308 309 310 312 314 316 316 315 315 315 315 315 314
316 318 316 314 315 315 316 316 316 317 316 315 315 315 317 316 317 317 315 314 311 310 308 307 306 307 308 308 308 308 307 307 307 307 308 310 311 311 312 312 312 312 313 313
316 313 312 313 314 314 315 315 315 314 314 315 313 315 316 318 318 315 312 310 309 307 306 305 304 304 304 304 305 307 308 308 307 306 306 307 309 308 308 308 308 309 309 310
315 313 313 313 314 314 314 312 312 312 312 314 315 316 318 318 317 314 311 309 307 306 305 304 303 304 305 307 307 307 307 307 307 307 305 304 305 305 306 306 305 304 305 305
315 310 311 313 312 312 311 311 313 314 314 318 319 319 319 318 316 311 309 307 306 305 304 303 302 303 304 305 305 305 306 306 306 305 305 304 303 303 303 304 303 303 303 303
318 314 314 310 313 312 310 313 320 323 321 322 315 320 318 317 314 311 309 307 306 305 304 303 302 302 302 303 304 304 305 307 306 305 305 303 303 303 302 302 302 302 302 302
317 316 314 309 312 315 314 317 324 327 325 323 320 321 320 317 310 308 308 306 305 303 302 301 301 300 299 299 299 301 304 304 303 304 304 303 303 303 301 301 302 301 300 300
318 317 313 309 309 314 318 319 318 320 320 321 317 317 317 318 313 310 308 305 303 301 300 300 299 299 297 297 296 297 299 299 301 302 301 301 301 301 302 302 301 301 300 299
316 320 317 316 310 312 311 311 315 315 317 319 317 319 318 314 313 310 307 304 301 300 299 298 298 298 296 294 294 295 296 296 295 296 298 298 299 300 300 300 300 300 300 300
315 316 315 314 314 314 310 311 311 313 317 318 320 319 316 313 311 309 304 301 300 298 296 295 296 297 296 293 293 292 292 292 292 292 292 293 294 295 295 297 299 300 300 300
314 314 316 313 312 312 314 315 314 316 317 317 318 318 310 308 305 303 301 300 298 297 295 293 293 293 295 292 290 290 290 289 289 288 288 288 289 290 291 292 292 293 296 298
313 313 314 314 309 312 314 313 312 313 313 315 316 315 308 304 303 301 300 298 296 295 292 291 291 291 291 290 289 288 289 289 289 289 289 288 288 288 288 288 288 289 290 291
309 311 312 312 308 309 310 311 311 312 313 313 314 312 310 309 308 304 299 297 296 294 291 291 290 290 290 290 289 288 287 287 287 287 287 287 287 287 286 286 287 287 287 288
307 308 307 307 307 307 308 307 308 308 309 309 309 308 306 306 304 299 295 294 294 294 291 290 290 289 289 289 288 287 287 287 287 287 286 286 286 286 286 286 286 286 286 286
304 304 303 303 303 303 303 303 304 304 305 304 304 303 304 299 296 296 295 293 292 292 292 290 290 289 289 289 289 288 287 287 286 286 286 285 285 286 286 286 286 286 286 285
300 301 301 301 300 300 301 301 301 302 302 302 302 301 296 296 294 293 292 292 292 291 291 291 290 289 289 289 289 289 287 286 286 286 286 286 286 285 285 285 285 285 285 285
298 299 300 300 299 299 299 298 297 296 296 297 299 295 293 292 292 292 292 292 291 291 290 290 290 289 289 288 288 287 287 286 285 286 286 286 285 285 285 285 285 285 285 285
295 296 297 297 298 298 297 296 295 295 296 298 298 293 292 291 291 291 292 291 291 290 290 289 289 289 288 287 286 286 286 285 284 283 282 282 282 282 284 284 284 285 284 284
293 295 297 296 295 294 294 295 292 293 294 296 293 292 292 291 291 292 291 290 290 290 290 289 289 289 288 287 286 285 284 283 282 281 280 280 280 280 280 280 281 282 282 283
293 294 295 296 296 295 295 294 292 293 295 295 293 292 291 291 291 291 290 290 290 289 289 289 288 287 287 285 284 284 281 280 279 278 278 278 278 278 277 277 276 276 276 277
292 293 294 293 293 293 293 292 292 293 293 292 292 291 291 291 290 290 290 289 289 288 288 287 287 287 286 284 281 281 280 277 276 275 274 274 273 273 273 273 273 272 272 272
291 292 292 293 292 293 291 292 292 292 292 291 291 291 291 291 290 290 289 288 287 287 286 285 284 284 283 281 278 278 277 276 274 274 273 271 270 269 268 269 269 269 270 270
292 292 292 293 292 292 291 291 291 291 291 291 291 291 290 289 289 288 287 286 285 284 284 282 281 281 281 279 277 275 275 273 272 271 270 268 266 266 265 265 265 266 267 268
293 293 293 292 292 292 291 291 291 291 290 290 290 289 288 287 287 286 285 284 284 282 281 280 279 279 278 276 276 274 273 271 269 267 265 265 265 264 264 264 264 264 265 265
292 293 292 292 292 292 291 291 291 290 290 290 289 288 287 287 285 284 283 282 280 279 279 278 277 276 275 275 274 273 271 269 267 265 264 264 263 263 263 263 263 264 265 266
Wind_Speed
9 8 10 16 16 20 22 23 25 21 19 23 23 24 20 27 31 34 28 25 16 11 10 14 16 14 12 8 5 7 11 15 19 22 27 31 35 36 35 37 37 38 40 40
4 12 16 16 17 13 18 22 24 22 18 16 18 24 25 25 27 27 22 16 6 8 13 16 17 16 17 12 6 3 2 8 13 14 16 18 18 24 27 32 34 38 40 42
15 15 15 12 15 18 20 19 22 25 20 19 19 20 14 8 17 13 9 9 20 16 16 18 20 23 23 23 19 12 7 3 2 7 12 14 17 20 17 24 28 34 37 41
9 2 4 10 14 17 19 16 15 14 12 11 5 9 15 19 13 11 17 20 18 18 17 17 18 22 24 25 25 26 22 17 11 6 4 7 8 12 12 16 20 27 30 34
2 5 5 8 9 11 15 5 8 9 11 15 13 9 4 5 7 16 15 16 18 18 18 19 20 21 23 24 24 23 21 20 18 14 7 4 7 9 10 11 16 20 23 24
13 2 4 4 8 8 5 10 14 16 8 8 13 13 6 3 8 13 14 14 14 14 16 18 19 22 24 23 23 23 23 22 21 17 13 9 6 7 9 10 15 18 20 22
11 12 9 4 7 8 7 8 6 5 7 7 5 7 10 11 7 9 11 11 12 12 14 16 18 18 20 21 21 21 22 24 23 20 18 16 13 11 9 8 12 14 16 20
10 12 6 8 6 4 6 2 3 5 8 15 15 9 10 3 14 14 12 12 11 11 10 11 12 12 13 16 17 20 21 20 20 20 21 19 18 17 13 12 12 12 15 17
8 6 3 4 1 3 4 5 5 4 8 5 9 21 19 14 12 11 11 10 9 9 10 12 12 13 13 15 16 19 21 21 19 18 17 18 21 21 20 18 15 14 15 17
2 8 4 3 2 8 5 4 4 5 6 14 14 18 13 9 5 7 6 8 10 11 12 12 12 13 13 15 17 21 24 22 21 20 18 16 16 16 18 21 22 20 17 17
4 4 6 5 6 12 3 4 5 4 5 10 13 8 5 10 5 8 5 5 6 8 9 10 10 11 14 16 19 19 21 23 25 24 21 19 19 19 18 18 19 22 24 23
7 4 9 22 21 19 14 16 16 9 8 8 11 12 8 9 7 3 2 4 5 5 7 8 10 11 12 17 19 21 22 22 23 24 24 25 23 21 20 21 20 21 22 22
5 3 5 7 13 1 5 5 7 12 4 15 15 11 7 9 6 3 7 4 3 3 6 8 10 12 13 14 17 20 22 23 25 27 27 27 27 27 26 26 25 24 24 24
1 7 11 13 18 20 20 22 18 11 6 13 10 15 21 18 10 5 6 6 4 3 4 7 8 9 11 12 14 17 20 23 26 26 27 29 31 31 30 30 30 30 29 29
4 9 14 17 19 17 15 17 23 22 19 18 21 22 23 20 15 7 4 4 5 7 7 7 7 9 13 15 17 19 21 24 27 29 29 30 31 32 34 35 35 35 34 32
5 9 11 15 19 20 22 25 27 23 23 25 24 26 22 11 2 4 4 5 8 11 10 9 8 10 11 12 14 18 23 25 27 28 30 32 34 36 37 39 41 43 41 38
6 6 6 16 17 16 14 22 21 25 25 24 22 17 7 6 3 4 7 11 14 15 15 13 13 13 12 13 14 16 19 25 29 30 32 34 37 39 40 41 43 45 47 47
13 13 9 12 10 17 11 7 12 14 16 15 9 2 4 1 8 10 12 14 15 18 19 19 20 20 18 18 18 20 31 34 36 38 40 40 39 40 42 45 46 46 46 48
18 14 8 7 13 18 22 17 15 10 16 2 5 6 3 9 15 18 13 14 17 20 19 20 24 22 20 22 23 37 42 41 41 40 40 40 42 44 44 44 46 48 51 52
6 13 11 6 10 12 11 6 1 3 11 8 6 4 7 13 9 12 21 19 20 20 20 23 22 24 27 30 38 41 41 41 40 41 40 41 40 42 50 54 56 56 57 57
3 4 13 13 13 12 8 1 2 8 8 12 7 9 15 10 16 23 23 21 19 21 21 20 23 27 33 38 42 46 46 40 37 39 43 44 42 42 44 47 54 56 61 64
7 6 7 6 9 13 3 5 8 8 3 7 18 22 21 22 20 19 20 20 19 18 22 27 31 36 40 41 44 47 50 47 48 50 52 50 47 45 46 46 52 49 47 49
8 10 7 7 7 10 12 12 15 17 22 30 33 29 23 21 20 17 17 16 18 23 26 29 33 38 41 42 44 49 54 53 53 54 55 56 54 51 48 44 45 45 43 44
16 25 14 16 18 25 29 33 33 33 31 31 30 25 21 17 15 19 18 19 21 23 26 30 35 39 44 46 48 48 49 49 50 53 54 53 49 47 44 40 39 41 42 42
15 11 14 15 22 25 30 33 33 32 32 30 23 24 21 16 17 18 20 21 23 26 29 31 36 40 44 47 46 44 45 46 48 48 46 45 43 40 41 40 38 39 40 40
24 19 13 15 27 23 27 30 26 26 29 26 25 23 20 20 19 18 20 21 24 26 30 34 37 41 41 42 42 43 42 41 42 44 43 42 42 41 41 41 42 37 36 38
Wind_Direction
193 224 224 253 255 261 277 284 282 283 288 291 289 291 291 291 285 270 282 288 294 314 27 37 28 24 25 11 343 260 245 249 246 241 236 238 241 244 242 239 241 241 244 242
200 247 262 279 281 288 281 280 281 284 281 290 295 290 295 280 276 280 286 296 323 72 53 38 35 39 35 28 14 12 281 245 255 235 241 237 239 243 248 247 243 242 242 243
261 282 306 290 276 271 266 275 284 291 305 300 289 285 266 268 278 303 349 93 84 70 56 44 43 47 53 47 38 30 29 32 261 258 248 244 229 240 244 248 246 245 245 247
260 351 319 293 275 272 282 294 309 306 311 297 18 288 301 277 270 94 75 76 63 56 58 53 50 46 46 51 56 55 53 50 48 34 308 263 258 263 261 259 257 254 256 253
100 203 225 263 256 272 279 347 316 299 278 284 273 254 277 264 250 114 92 65 59 56 44 40 42 44 46 46 47 47 46 47 45 44 52 5 312 288 261 260 269 269 268 267
257 135 227 234 298 245 315 286 276 261 273 261 266 245 286 42 33 100 94 77 67 52 47 46 35 34 37 39 37 35 36 39 38 32 22 17 347 314 292 274 283 281 284 278
286 234 214 209 255 211 231 257 291 268 215 264 91 330 256 302 97 126 122 99 83 70 57 43 43 36 31 34 38 36 36 33 28 27 23 16 359 340 316 301 297 292 286 287
280 290 181 159 222 312 194 305 221 275 284 301 311 270 269 98 110 110 109 102 87 67 53 50 39 35 29 24 23 23 33 30 21 16 13 12 11 4 345 326 309 290 280 285
304 258 86 232 340 282 117 218 225 250 250 265 254 267 271 239 136 130 118 100 78 63 50 31 26 23 23 18 17 21 22 19 15 13 6 3 359 357 358 350 336 318 304 291
50 294 276 249 263 226 217 341 233 177 263 266 262 269 257 166 176 130 74 58 37 25 31 30 24 19 20 18 15 11 12 8 9 8 4 360 355 350 348 346 347 347 332 313
131 181 271 254 226 264 225 239 219 292 239 258 268 254 234 354 11 124 90 37 19 13 17 15 15 18 4 5 8 8 6 1 0 0 0 359 356 354 350 343 336 333 335 337
234 245 260 272 283 284 278 266 261 242 232 223 254 264 3 49 91 65 352 341 357 3 10 14 10 12 12 2 356 360 356 352 354 356 355 353 352 352 348 345 344 338 330 324
26 271 287 283 279 266 239 348 337 315 278 263 275 280 71 136 148 229 251 263 286 322 356 17 13 7 4 358 352 345 341 338 340 339 340 341 341 342 342 341 340 337 332 330
311 250 245 259 275 300 292 296 284 253 266 289 268 287 287 286 294 236 247 242 250 265 317 339 348 353 347 343 339 337 335 332 330 330 330 331 329 331 333 333 331 330 329 327
262 258 272 275 278 283 283 280 275 269 271 268 279 285 286 296 302 319 330 328 294 274 272 284 311 325 326 329 327 326 328 327 323 323 324 322 321 322 321 322 323 323 322 321
203 267 289 277 275 275 273 268 266 272 275 272 274 274 279 341 10 270 280 297 308 309 279 287 304 308 303 298 304 309 318 315 315 316 314 314 314 313 313 314 315 315 314 314
259 262 276 268 283 291 272 257 263 262 266 272 276 298 339 323 305 314 312 302 310 317 309 284 293 300 304 300 295 288 295 306 311 311 310 308 305 302 301 302 303 305 306 307
251 251 257 271 291 261 264 304 307 291 290 292 296 101 111 5 313 310 304 295 302 314 312 301 293 295 296 302 306 303 313 312 311 310 308 306 303 299 296 295 296 295 295 296
238 252 260 250 248 278 297 294 294 307 285 223 212 173 169 333 323 302 310 317 313 310 299 299 299 291 294 302 305 313 315 313 312 308 308 307 305 302 298 294 292 290 291 290
236 236 235 229 252 262 293 342 9 310 276 147 145 180 306 322 301 296 313 308 303 304 301 304 302 288 296 301 309 312 312 311 309 308 304 300 295 292 295 297 295 292 289 288
193 227 227 240 254 262 274 61 106 251 297 151 174 288 295 285 279 291 298 294 297 301 305 300 295 295 299 306 308 308 310 309 306 300 299 298 295 289 286 286 288 291 291 290
230 245 226 238 260 271 74 114 226 285 168 237 292 304 293 287 287 288 293 297 304 303 301 301 301 301 302 306 308 308 308 310 306 303 301 298 294 289 285 284 284 285 285 284
241 238 263 235 253 260 192 254 259 270 276 285 293 294 291 286 281 289 291 288 289 295 300 302 301 303 306 307 310 309 310 310 308 305 303 301 300 296 292 287 286 286 284 281
262 256 254 255 250 257 269 273 271 276 279 283 289 288 279 269 273 283 284 290 293 299 302 303 305 307 308 310 312 312 312 312 310 307 305 306 307 307 304 297 289 285 283 281
250 269 253 257 259 266 265 266 267 271 273 275 279 285 274 269 276 282 286 292 298 300 303 304 306 307 310 313 314 315 317 316 312 309 309 310 310 307 302 298 293 288 284 281
246 251 258 261 264 265 270 279 284 285 284 275 270 266 268 277 277 278 286 292 297 299 304 307 309 310 315 316 317 320 320 317 313 310 311 309 306 304 301 299 297 296 290 287